Regional Weather Roundup
Issued by NWS

Home | Current Version | Previous Version | Text Only | Print | Product List | Glossary Off
Versions: 1 2 3 4 5 6 7 8 9 10 11 12 13 14 15 16 17 18 19 20 21 22 23 24 25 26 27 28 29 30 31 32 33 34 35 36 37 38 39 40 41 42 43 44 45 46 47 48 49 50

000
ASUS43 KLMK 011402
RWRKY
KENTUCKY REGIONAL WEATHER ROUNDUP
NATIONAL WEATHER SERVICE LOUISVILLE KY
1000 AM EDT WED JUL 01 2015

NOTE "FAIR" INDICATES FEW OR NO CLOUDS BELOW 12,000 FEET
WITH NO SIGNIFICANT WEATHER AND/OR OBSTRUCTIONS TO VISIBILITY.

KYZ001>023-026-027-061>063-070>075-011500-
WESTERN AND SOUTH CENTRAL KENTUCKY

CITY           SKY/WX    TMP DP  RH WIND       PRES   REMARKS
PADUCAH        LGT RAIN  74  71  91 W3        29.94S FOG
HENDERSON      CLOUDY    73  70  88 SW3       29.92S
OWENSBORO      CLOUDY    74  72  93 SW8       29.94S FOG
HOPKINSVILLE   NOT AVBL
BOWLING GREEN  CLOUDY    76  70  82 SW9       29.95F
GLASGOW        NOT AVBL
$$

KYZ024-025-028>034-038-045-046-053-011500-
NORTH CENTRAL KENTUCKY

CITY           SKY/WX    TMP DP  RH WIND       PRES   REMARKS
LOUISVILLE/SDF CLOUDY    75  68  78 CALM      29.92S
LOUISVILLE/LOU PTSUNNY   74  68  81 W3        29.94R HAZE
FORT KNOX      NOT AVBL
$$

KYZ035>037-039>044-047>052-055>060-089>105-011500-
NORTHEAST KENTUCKY

CITY           SKY/WX    TMP DP  RH WIND       PRES   REMARKS
LEXINGTON      CLOUDY    72  68  87 W8        29.96F FOG
COVINGTON      MOSUNNY   71  61  70 CALM      29.96R
FRANKFORT      PTSUNNY   72  68  87 VRB3      29.95S FOG
$$

KYZ054-064>069-076>088-106>120-011500-
SOUTHEAST KENTUCKY

CITY           SKY/WX    TMP DP  RH WIND       PRES   REMARKS
JACKSON        CLOUDY    69  67  93 CALM      30.00R FOG
LONDON         CLOUDY    75  67  76 VRB5      29.99S
SOMERSET       NOT AVBL
MIDDLESBORO    CLOUDY    71  69  92 CALM      30.02R
MONTICELLO     PTSUNNY   76  73  90 SW6       30.02S
$$



USA.gov is the U.S. government's official web portal to all federal, state and local government web resources and services.